• In Hungary
  • List of Countries
  • For 7 days
  • Water Temperature
  • Satellite Maps
  • Weather Map
  • News
  • Weather Widgets
  • user-avatar
    Login

    Hourly Weather Avellino

    Today, 23 June, Saturday

    Time Temperature Precipitation Wind Pressure Humidity
    00:00 +21°C° 0.5 mm 1 mps 729 mmHg 85%
    01:00 +21°C° 0.5 mm 1 mps 729 mmHg 87%
    02:00 +19°C° 0.2 mm 2 mps 730 mmHg 86%
    03:00 +19°C° 0.2 mm 2 mps 730 mmHg 85%
    04:00 +19°C° 0.2 mm 3 mps 730 mmHg 83%
    05:00 +20°C° 0 mm 3 mps 730 mmHg 79%
    06:00 +20°C° 0 mm 4 mps 730 mmHg 74%
    07:00 +20°C° 0 mm 4 mps 731 mmHg 70%
    08:00 +22°C° 0 mm 4 mps 731 mmHg 62%
    09:00 +23°C° 0 mm 4 mps 731 mmHg 55%
    10:00 +25°C° 0 mm 5 mps 731 mmHg 48%
    11:00 +25°C° 0 mm 5 mps 731 mmHg 45%
    12:00 +26°C° 0 mm 5 mps 731 mmHg 42%
    13:00 +27°C° 0 mm 5 mps 731 mmHg 38%
    14:00 +26°C° 0 mm 4 mps 731 mmHg 38%
    15:00 +26°C° 0 mm 4 mps 731 mmHg 38%
    16:00 +26°C° 0 mm 4 mps 731 mmHg 38%
    17:00 +25°C° 0 mm 4 mps 730 mmHg 43%
    18:00 +22°C° 0 mm 3 mps 730 mmHg 47%
    19:00 +21°C° 0 mm 3 mps 730 mmHg 51%
    20:00 +20°C° 0 mm 3 mps 730 mmHg 52%
    21:00 +19°C° 0 mm 3 mps 731 mmHg 53%
    22:00 +18°C° 0 mm 3 mps 731 mmHg 53%
    23:00 +18°C° 0 mm 3 mps 731 mmHg 54%

    Tomorrow, 24 June, Sunday

    Time Temperature Precipitation Wind Pressure Humidity
    00:00 +18°C° 0 mm 3 mps 731 mmHg 55%
    01:00 +17°C° 0 mm 3 mps 731 mmHg 56%
    02:00 +17°C° 0 mm 3 mps 730 mmHg 56%
    03:00 +17°C° 0 mm 3 mps 730 mmHg 57%
    04:00 +17°C° 0 mm 3 mps 730 mmHg 58%
    05:00 +18°C° 0 mm 3 mps 730 mmHg 57%
    06:00 +19°C° 0 mm 3 mps 730 mmHg 56%
    07:00 +20°C° 0 mm 3 mps 730 mmHg 55%
    08:00 +21°C° 0 mm 3 mps 730 mmHg 51%
    09:00 +24°C° 0 mm 3 mps 731 mmHg 47%
    10:00 +25°C° 0 mm 3 mps 731 mmHg 44%
    11:00 +26°C° 0 mm 3 mps 731 mmHg 42%
    12:00 +27°C° 0 mm 3 mps 731 mmHg 39%
    13:00 +28°C° 0 mm 3 mps 731 mmHg 37%
    14:00 +27°C° 0 mm 3 mps 730 mmHg 39%
    15:00 +27°C° 0 mm 3 mps 730 mmHg 40%
    16:00 +27°C° 0 mm 3 mps 730 mmHg 41%
    17:00 +25°C° 0 mm 3 mps 730 mmHg 46%
    18:00 +24°C° 0 mm 2 mps 730 mmHg 51%
    19:00 +23°C° 0 mm 2 mps 729 mmHg 55%
    20:00 +21°C° 0 mm 2 mps 729 mmHg 58%
    21:00 +20°C° 0 mm 2 mps 730 mmHg 60%
    22:00 +19°C° 0 mm 2 mps 730 mmHg 63%
    23:00 +19°C° 0 mm 2 mps 729 mmHg 65%

    Day after tomorrow, 25 June, Monday

    Time Temperature Precipitation Wind Pressure Humidity
    00:00 +18°C° 0 mm 2 mps 729 mmHg 66%
    01:00 +18°C° 0 mm 2 mps 729 mmHg 68%
    02:00 +17°C° 0 mm 2 mps 728 mmHg 69%
    03:00 +17°C° 0 mm 2 mps 728 mmHg 71%
    04:00 +16°C° 0 mm 2 mps 728 mmHg 73%
    05:00 +17°C° 0 mm 2 mps 728 mmHg 68%
    06:00 +19°C° 0 mm 2 mps 728 mmHg 64%
    07:00 +20°C° 0 mm 2 mps 729 mmHg 60%
    08:00 +21°C° 0 mm 2 mps 729 mmHg 54%
    09:00 +24°C° 0 mm 3 mps 729 mmHg 47%
    10:00 +26°C° 0 mm 3 mps 729 mmHg 40%
    11:00 +26°C° 0.1 mm 3 mps 729 mmHg 40%
    12:00 +27°C° 0.1 mm 3 mps 729 mmHg 40%
    13:00 +27°C° 0.1 mm 4 mps 729 mmHg 40%
    14:00 +27°C° 0.3 mm 4 mps 729 mmHg 42%
    15:00 +26°C° 0.3 mm 4 mps 729 mmHg 45%
    16:00 +26°C° 0.3 mm 5 mps 729 mmHg 47%
    17:00 +25°C° 0.1 mm 4 mps 729 mmHg 51%
    18:00 +22°C° 0.1 mm 4 mps 729 mmHg 55%
    19:00 +21°C° 0.1 mm 3 mps 729 mmHg 59%
    20:00 +20°C° 0 mm 3 mps 729 mmHg 62%
    21:00 +19°C° 0 mm 3 mps 730 mmHg 65%
    22:00 +18°C° 0 mm 3 mps 730 mmHg 68%
    23:00 +18°C° 0 mm 3 mps 729 mmHg 70%

    26 June, Tuesday

    Time Temperature Precipitation Wind Pressure Humidity
    00:00 +17°C° 0 mm 3 mps 729 mmHg 72%
    01:00 +17°C° 0 mm 3 mps 729 mmHg 73%
    02:00 +17°C° 0 mm 3 mps 729 mmHg 75%
    03:00 +16°C° 0 mm 3 mps 729 mmHg 77%
    04:00 +16°C° 0 mm 3 mps 728 mmHg 79%
    05:00 +17°C° 0 mm 3 mps 728 mmHg 75%
    06:00 +19°C° 0 mm 4 mps 729 mmHg 72%
    07:00 +20°C° 0 mm 4 mps 729 mmHg 68%
    08:00 +21°C° 0.1 mm 5 mps 729 mmHg 63%
    09:00 +22°C° 0.1 mm 5 mps 729 mmHg 59%
    10:00 +23°C° 0.1 mm 5 mps 729 mmHg 54%
    11:00 +24°C° 0.3 mm 6 mps 729 mmHg 54%
    12:00 +24°C° 0.3 mm 6 mps 729 mmHg 53%
    13:00 +26°C° 0.3 mm 6 mps 729 mmHg 52%
    14:00 +24°C° 0.5 mm 6 mps 729 mmHg 54%
    15:00 +24°C° 0.5 mm 6 mps 729 mmHg 56%
    16:00 +23°C° 0.5 mm 6 mps 729 mmHg 58%
    17:00 +22°C° 0.1 mm 5 mps 729 mmHg 62%
    18:00 +21°C° 0.1 mm 5 mps 729 mmHg 66%
    19:00 +20°C° 0.1 mm 4 mps 729 mmHg 70%
    20:00 +19°C° 0 mm 4 mps 729 mmHg 72%
    21:00 +18°C° 0 mm 4 mps 729 mmHg 74%
    22:00 +18°C° 0 mm 3 mps 729 mmHg 77%
    23:00 +17°C° 0 mm 3 mps 729 mmHg 77%

    27 June, Wednesday

    Time Temperature Precipitation Wind Pressure Humidity
    00:00 +17°C° 0 mm 3 mps 729 mmHg 78%
    01:00 +17°C° 0 mm 3 mps 728 mmHg 78%
    02:00 +17°C° 0 mm 3 mps 728 mmHg 79%
    03:00 +17°C° 0 mm 3 mps 728 mmHg 79%
    04:00 +17°C° 0 mm 3 mps 728 mmHg 80%
    05:00 +18°C° 0 mm 3 mps 728 mmHg 77%
    06:00 +19°C° 0 mm 4 mps 728 mmHg 74%
    07:00 +20°C° 0 mm 4 mps 728 mmHg 72%
    08:00 +21°C° 0 mm 4 mps 728 mmHg 67%
    09:00 +23°C° 0 mm 5 mps 728 mmHg 62%
    10:00 +25°C° 0 mm 5 mps 729 mmHg 57%
    11:00 +26°C° 0.1 mm 5 mps 729 mmHg 55%
    12:00 +26°C° 0.1 mm 5 mps 728 mmHg 54%
    13:00 +27°C° 0.1 mm 6 mps 728 mmHg 52%
    14:00 +27°C° 0 mm 6 mps 728 mmHg 51%
    15:00 +27°C° 0 mm 6 mps 728 mmHg 51%
    16:00 +27°C° 0 mm 6 mps 728 mmHg 51%
    17:00 +26°C° 0 mm 5 mps 728 mmHg 54%
    18:00 +25°C° 0 mm 5 mps 728 mmHg 57%
    19:00 +23°C° 0 mm 4 mps 728 mmHg 61%
    20:00 +22°C° 0 mm 4 mps 729 mmHg 65%
    21:00 +21°C° 0 mm 3 mps 729 mmHg 70%
    22:00 +20°C° 0 mm 3 mps 729 mmHg 74%
    23:00 +20°C° 0 mm 3 mps 729 mmHg 75%

    28 June, Thursday

    Time Temperature Precipitation Wind Pressure Humidity
    00:00 +19°C° 0 mm 3 mps 729 mmHg 76%
    01:00 +19°C° 0 mm 2 mps 728 mmHg 77%
    02:00 +19°C° 0.1 mm 2 mps 728 mmHg 78%
    03:00 +19°C° 0.1 mm 2 mps 728 mmHg 79%
    04:00 +18°C° 0.1 mm 2 mps 728 mmHg 80%
    05:00 +20°C° 0 mm 3 mps 729 mmHg 76%
    06:00 +21°C° 0 mm 3 mps 729 mmHg 72%
    07:00 +22°C° 0 mm 3 mps 729 mmHg 69%
    08:00 +25°C° 0 mm 3 mps 729 mmHg 63%
    09:00 +26°C° 0 mm 3 mps 729 mmHg 58%
    10:00 +27°C° 0 mm 4 mps 729 mmHg 53%
    11:00 +28°C° 0.2 mm 4 mps 729 mmHg 51%
    12:00 +29°C° 0.2 mm 4 mps 729 mmHg 49%
    13:00 +29°C° 0.2 mm 4 mps 729 mmHg 47%
    14:00 +29°C° 0.3 mm 4 mps 729 mmHg 48%
    15:00 +29°C° 0.3 mm 4 mps 729 mmHg 48%
    16:00 +29°C° 0.3 mm 4 mps 729 mmHg 49%
    17:00 +27°C° 0.2 mm 4 mps 729 mmHg 54%
    18:00 +26°C° 0.2 mm 3 mps 729 mmHg 59%
    19:00 +25°C° 0.2 mm 3 mps 729 mmHg 63%
    20:00 +24°C° 0 mm 3 mps 730 mmHg 67%
    21:00 +23°C° 0 mm 2 mps 730 mmHg 71%
    22:00 +20°C° 0 mm 2 mps 730 mmHg 75%
    23:00 +20°C° 0 mm 2 mps 730 mmHg 75%
    Show more